Hourly Data Report for October 06, 2015

All times are specified in Local Standard Time (LST). Add 1 hour to adjust for Daylight Saving Time where and when it is observed.

IQALUIT CLIMATE
NUNAVUT

63°44'50.000" N
68°32'40.000" W
33.50 m
2402592
71321
XFB

Download Data

Hourly Data (October 2015)
Hourly Data Report for October 6, 2015
Temp Definition
°C
Dew Point Temp Definition
°C
Rel Hum Definition
%
Wind Dir Definition
10's deg

Wind Spd Definition
km/h
Visibility Definition
km
Stn Press Definition
kPa
Hmdx Definition


Wind Chill Definition


Weather Definition


TIME
00:00 -3.2 -8.7 66 2 10   101.67   -7 LegendNANA
01:00 -3.2 -8.5 67 36 11   101.67   -7 LegendNANA
02:00 -3.4 -8.2 69 32 6   101.64   -6 LegendNANA
03:00 -3.2 -8.7 65 33 4   101.62   -5 LegendNANA
04:00 -3.3 -8.2 69 33 5   101.61   -5 LegendNANA
05:00 -3.2 -8.5 67 14 4   101.57   -5 LegendNANA
06:00 -3.4 -8.4 68 8 7   101.53   -6 LegendNANA
07:00 -3.3 -8.5 67 11 7   101.50   -6 LegendNANA
08:00 -3.1 -8.7 65 10 8   101.45   -6 LegendNANA
09:00 -2.7 -8.1 67 15 7   101.41   -6 LegendNANA
10:00 -2.8 -7.9 68 14 10   101.35   -7 LegendNANA
11:00 -2.8 -7.9 68 16 10   101.27   -7 LegendNANA
12:00 -2.0 -7.3 67 16 10   101.19   -6 LegendNANA
13:00 -1.9 -7.0 68 16 10   101.13   -6 LegendNANA
14:00 -1.9 -6.6 70 19 8   101.06   -5 LegendNANA
15:00 -2.0 -6.8 70 16 10   101.00   -6 LegendNANA
16:00 -2.4 -7.0 71 17 7   100.96   -5 LegendNANA
17:00 -2.6 -6.1 77 16 9   100.89   -6 LegendNANA
18:00 -3.0 -5.4 83 13 9   100.84   -7 LegendNANA
19:00 -3.4 -5.9 83 10 10   100.77   -7 LegendNANA
20:00 -3.4 -6.4 80 10 12   100.69   -8 LegendNANA
21:00 -3.1 -5.7 83 10 11   100.62   -7 LegendNANA
22:00 -2.7 -5.1 83 10 13   100.54   -7 LegendNANA
23:00 -2.3 -4.6 84 12 17   100.47   -8 LegendNANA

Notes on Data Quality.

Legend

  • E = Estimated
  • M = Missing
  • NA = Not Available
  • ‡ = Partner data that is not subject to review by the National Climate Archives
Date modified: